Location: Oregon Star Party
(44.2935°N, 120.1332°W)
Time: 02:16:37
(UTC-08:00)

Amateur Radio Satellites - All Passes

Search period start: 04 December 2016 01:46
Search period end: 05 December 2016 01:46
Location: Oregon Star Party, 44.2935°N, 120.1332°W

Satellite Date Start Highest point End Downlink Frequencies (MHz)
Time Altitude Azimuth
Oscar 19 04 Dec 01:47:54 01:53:07 82° 286° (WNW) 01:58:18 437.125/150
KKS-1 04 Dec 01:53:06 01:54:50 12° 59° (ENE) 01:56:35 437.445
PHONESAT 2.4 04 Dec 01:54:12 01:56:18 21° 163° (SSE) 01:58:24 2401.200-2431.200
ITAMSAT 1 04 Dec 02:11:56 02:15:48 21° 93° (E) 02:19:38 435.822/435.867
AO-85 04 Dec 02:16:56 02:21:41 49° 119° (ESE) 02:26:07 145.980
AUBIESAT-1 04 Dec 02:17:53 02:21:21 26° 261° (W) 02:25:02 437.475
Cosmos 2499 04 Dec 02:27:29 02:34:58 32° 293° (WNW) 02:42:46 435.465 / 435.565
M-CUBED/EXP-1 PRIME 04 Dec 02:29:04 02:31:47 17° 265° (W) 02:34:38 437.505
CUBESAT XI-V 04 Dec 02:38:59 02:40:41 12° 59° (ENE) 02:42:25 437.345
MOZHAYETS 4 04 Dec 02:39:16 02:43:51 72° 74° (ENE) 02:48:26
SWISSCUBE 04 Dec 02:46:57 02:50:42 23° 266° (W) 02:54:28 437.505
AO-7 04 Dec 02:48:01 02:55:19 32° 96° (E) 03:02:35 29.400- 29.500
BEESAT 04 Dec 02:51:13 02:55:00 23° 266° (W) 02:58:47 436.000
Gurwin Techsat 1B 04 Dec 03:05:02 03:09:49 35° 294° (WNW) 03:14:34 435.225
O/OREOS (USA 219) 04 Dec 03:13:59 03:17:16 20° 259° (WSW) 03:20:31 437.305
GONETS M04 04 Dec 03:14:20 03:20:21 20° 301° (WNW) 03:26:24
ITUPSAT 1 04 Dec 03:19:07 03:21:24 13° 271° (W) 03:23:41 437.325
SO-50 04 Dec 03:24:15 03:26:57 15° 33° (NNE) 03:29:37 436.795
KKS-1 04 Dec 03:26:16 03:30:44 83° 255° (WSW) 03:35:15 437.445
PHONESAT 2.4 04 Dec 03:28:45 03:31:14 35° 179° (S) 03:33:42 2401.200-2431.200
Oscar 19 04 Dec 03:29:29 03:31:37 13° 304° (NW) 03:33:43 437.125/150
STARS 04 Dec 03:38:41 03:43:03 64° 73° (ENE) 03:47:28 437.465
ITAMSAT 1 04 Dec 03:50:32 03:55:34 53° 290° (WNW) 04:00:34 435.822/435.867
AO-85 04 Dec 03:58:16 04:02:18 26° 316° (NW) 04:06:06 145.980
CUBESAT XI-V 04 Dec 04:12:47 04:17:22 86° 254° (WSW) 04:22:00 437.345
MOZHAYETS 4 04 Dec 04:19:36 04:21:31 12° 271° (W) 04:23:26
GOMX 1 04 Dec 04:30:49 04:33:41 14° 87° (E) 04:36:33 467.674
HORYU 2 04 Dec 04:31:11 04:34:21 19° 93° (E) 04:37:29 437.375
AO-7 04 Dec 04:40:19 04:48:32 63° 295° (WNW) 04:56:44 29.400- 29.500
BRITE-PL 04 Dec 04:41:44 04:46:43 38° 97° (E) 04:51:55 437.365/2234.400
BEESAT 3 04 Dec 04:47:56 04:50:56 21° 113° (ESE) 04:53:58 437.485
YUBILEINY 04 Dec 04:48:51 04:55:58 26° 64° (ENE) 05:03:03 435.215
SO-50 04 Dec 05:03:39 05:08:13 77° 55° (NE) 05:12:40 436.795
PHONESAT 2.4 04 Dec 05:04:00 05:06:09 22° 196° (SSW) 05:08:19 2401.200-2431.200
CUTE-I 04 Dec 05:09:33 05:12:43 16° 90° (E) 05:15:51 437.470
BEESAT 2 04 Dec 05:12:35 05:15:19 18° 112° (ESE) 05:18:06 435.950
STARS 04 Dec 05:17:42 05:19:50 13° 270° (W) 05:21:58 437.465
STRAND 1 04 Dec 05:19:56 05:23:54 23° 63° (ENE) 05:27:52 437.568
Cosmos 2491 04 Dec 05:21:14 05:26:23 17° 75° (ENE) 05:31:29 435.465 / 435.565
Cosmos 2504 04 Dec 05:24:49 05:31:21 22° 60° (ENE) 05:37:39 435.465 / 435.565
Cubesat XI-IV 04 Dec 05:33:50 05:38:16 26° 94° (E) 05:42:39 437.490
NOAA 15 04 Dec 05:38:29 05:43:10 31° 96° (E) 05:47:49 137.62
HORYU 2 04 Dec 06:06:53 06:11:06 44° 290° (WNW) 06:15:18 437.375
GOMX 1 04 Dec 06:06:53 06:12:21 84° 284° (WNW) 06:17:51 467.674
RS-15 04 Dec 06:10:21 06:19:23 27° 100° (E) 06:28:39 29.354- 29.394
BRITE-PL 04 Dec 06:20:23 06:25:04 32° 292° (WNW) 06:29:57 437.365/2234.400
BEESAT 3 04 Dec 06:24:40 06:28:20 38° 311° (NW) 06:32:04 437.485
CINEMA 3 04 Dec 06:26:42 06:30:04 18° 90° (E) 06:33:18 145.822/145.860
DOVE 4 04 Dec 06:28:29 06:33:50 72° 101° (E) 06:39:02 437.250
LilacSat-2 04 Dec 06:29:54 06:33:42 72° 284° (WNW) 06:37:26 437.200
AO-7 04 Dec 06:34:56 06:39:42 17° 317° (NW) 06:44:28 29.400- 29.500
AIST 1 04 Dec 06:36:20 06:40:36 45° 77° (ENE) 06:44:48
NOAA 18 04 Dec 06:38:52 06:44:23 61° 102° (ESE) 06:49:49 137.9125
YUBILEINY 04 Dec 06:44:53 06:53:42 76° 266° (W) 07:02:29 435.215
SO-50 04 Dec 06:46:00 06:48:01 13° 252° (WSW) 06:50:02 436.795
CUTE-I 04 Dec 06:47:58 06:53:18 72° 287° (WNW) 06:58:35 437.470
BEESAT 2 04 Dec 06:48:59 06:52:48 45° 310° (NW) 06:56:39 435.950
STRAND 1 04 Dec 06:57:46 07:02:45 50° 260° (W) 07:07:45 437.568
CUTE 1.7 + AOD 2 04 Dec 07:10:22 07:13:59 27° 95° (E) 07:17:36 437.475
Cosmos 2491 04 Dec 07:12:59 07:21:47 83° 95° (E) 07:30:34 435.465 / 435.565
Cubesat XI-IV 04 Dec 07:13:26 07:18:30 44° 292° (WNW) 07:23:32 437.490
Cosmos 2504 04 Dec 07:17:09 07:26:05 90° 111° (ESE) 07:34:31 435.465 / 435.565
NOAA 15 04 Dec 07:18:10 07:22:57 36° 293° (WNW) 07:27:45 137.62
HO-68 04 Dec 07:19:44 07:26:32 42° 98° (E) 07:33:17 435.675
AIST 2 04 Dec 07:22:35 07:23:59 11° 108° (ESE) 07:25:23 435.215
CANX-2 04 Dec 07:27:36 07:31:42 49° 100° (E) 07:35:47 2200.000
AAUSAT CUBESAT 2 04 Dec 07:44:20 07:47:40 23° 94° (E) 07:50:59 437.432
UWE-3 04 Dec 07:46:09 07:49:08 18° 91° (E) 07:52:05 435.000/436.395/437.385
GOMX 1 04 Dec 07:46:56 07:49:37 14° 302° (WNW) 07:52:19 467.674
SEEDS 04 Dec 07:57:24 08:01:33 62° 100° (E) 08:05:42 437.485
UNISAT 6 04 Dec 07:58:04 08:00:36 15° 61° (ENE) 08:03:08 437.425
PRISM 04 Dec 08:01:33 08:05:32 57° 72° (ENE) 08:09:33 437.425
CINEMA 3 04 Dec 08:02:47 08:07:32 52° 288° (WNW) 08:12:05 145.822/145.860
DOVE 4 04 Dec 08:07:26 08:10:53 18° 300° (WNW) 08:14:19 437.250
COMPASS 1 04 Dec 08:11:51 08:15:59 60° 101° (E) 08:20:05 437.405
AIST 1 04 Dec 08:14:57 08:17:48 17° 275° (W) 08:20:39
RS-15 04 Dec 08:18:23 08:30:13 89° 303° (WNW) 08:42:39 29.354- 29.394
NOAA 18 04 Dec 08:20:27 08:24:34 22° 300° (WNW) 08:28:40 137.9125
TIGRISAT 04 Dec 08:27:12 08:31:01 25° 66° (ENE) 08:34:48 435.000
ANTELSAT 04 Dec 08:28:00 08:31:54 27° 67° (ENE) 08:35:48 437.575/2403.000
CUTE-I 04 Dec 08:30:46 08:32:23 11° 306° (NW) 08:34:01 437.470
ZACube-1 04 Dec 08:31:20 08:35:12 33° 96° (E) 08:38:59 437.345
CUBEBUG 2 04 Dec 08:34:38 08:39:08 88° 285° (WNW) 08:43:26 437.445
FUNcube-1 04 Dec 08:40:11 08:44:09 37° 97° (E) 08:48:01 145.935
YUBILEINY 04 Dec 08:44:19 08:48:54 15° 286° (WNW) 08:53:30 435.215
JAS-2 04 Dec 08:45:17 08:48:13 14° 57° (ENE) 08:51:02 435.910
CUTE 1.7 + AOD 2 04 Dec 08:46:11 08:49:46 27° 292° (WNW) 08:53:20 437.475
AIST 2 04 Dec 08:57:43 09:01:49 75° 305° (NW) 09:06:01 435.215
DELFI C3 04 Dec 09:01:00 09:04:07 22° 94° (E) 09:07:15 145.870
CANX-2 04 Dec 09:04:30 09:07:10 17° 296° (WNW) 09:09:51 2200.000
HO-68 04 Dec 09:07:34 09:14:13 42° 297° (WNW) 09:20:50 435.675
AO-85 04 Dec 09:08:50 09:09:50 11° 30° (NNE) 09:10:48 145.980
CUSAT 1 04 Dec 09:11:04 09:14:01 30° 97° (E) 09:16:33 437.405
Cosmos 2504 04 Dec 09:12:19 09:18:09 20° 284° (WNW) 09:23:51 435.465 / 435.565
Cosmos 2491 04 Dec 09:13:01 09:19:44 24° 298° (WNW) 09:26:28 435.465 / 435.565
Oscar 11 04 Dec 09:13:15 09:17:35 85° 106° (ESE) 09:21:52 145.826/435.025
AAUSAT CUBESAT 2 04 Dec 09:19:29 09:23:09 31° 291° (WNW) 09:26:50 437.432
QB50P1 04 Dec 09:21:20 09:22:37 11° 60° (ENE) 09:23:56 145.935-145.965
UWE-3 04 Dec 09:21:43 09:25:51 43° 289° (WNW) 09:29:51 435.000/436.395/437.385
DUCHIFAT 1 04 Dec 09:26:39 09:27:46 11° 59° (ENE) 09:28:52 145.980
GONETS M04 04 Dec 09:28:50 09:30:52 11° 49° (NE) 09:32:55
UNISAT 6 04 Dec 09:32:03 09:36:44 73° 258° (WSW) 09:41:25 437.425
SEEDS 04 Dec 09:34:40 09:36:45 14° 298° (WNW) 09:38:50 437.485
DANDE 04 Dec 09:36:26 09:40:02 22° 96° (E) 09:43:00 436.750
PRISM 04 Dec 09:39:22 09:41:11 13° 269° (W) 09:43:01 437.425
POPSAT HIP 1 04 Dec 09:40:53 09:43:44 18° 63° (ENE) 09:46:35 437.405
COMPASS 1 04 Dec 09:48:56 09:51:03 14° 298° (WNW) 09:53:10 437.405
TIGRISAT 04 Dec 10:03:08 10:07:30 38° 263° (W) 10:11:52 435.000
ANTELSAT 04 Dec 10:04:09 10:08:28 35° 263° (W) 10:12:46 437.575/2403.000
ZACube-1 04 Dec 10:07:55 10:11:19 23° 294° (WNW) 10:14:40 437.345
CUBEBUG 2 04 Dec 10:14:12 10:14:57 10° 302° (WNW) 10:15:42 437.445
HUMSAT D 04 Dec 10:16:43 10:20:50 83° 105° (ESE) 10:24:53 437.325/437.525
FUNcube-1 04 Dec 10:16:58 10:20:09 21° 295° (WNW) 10:23:16 145.935
Cosmos 2499 04 Dec 10:23:13 10:30:16 26° 63° (ENE) 10:36:56 435.465 / 435.565
JAS-2 04 Dec 10:26:00 10:32:35 79° 75° (ENE) 10:38:24 435.910
BUGSAT 1 04 Dec 10:29:26 10:32:30 20° 65° (ENE) 10:35:35 437.445
RS-15 04 Dec 10:33:35 10:44:33 38° 332° (NNW) 10:55:51 29.354- 29.394
NANOSAT C BR1 04 Dec 10:35:21 10:39:32 59° 73° (ENE) 10:43:45 145.865
DELFI C3 04 Dec 10:35:28 10:38:58 30° 291° (WNW) 10:42:29 145.870
AIST 2 04 Dec 10:38:59 10:41:03 13° 326° (NW) 10:43:07 435.215
QB50P2 04 Dec 10:39:11 10:43:27 75° 74° (ENE) 10:47:45 145.880/145.840
POLYITAN 1 04 Dec 10:39:46 10:44:02 72° 75° (ENE) 10:48:21 437.675
AO-85 04 Dec 10:47:11 10:51:10 59° 52° (NE) 10:54:59 145.980
Oscar 11 04 Dec 10:51:58 10:53:02 11° 301° (WNW) 10:54:07 145.826/435.025
QB50P1 04 Dec 10:53:28 10:57:45 82° 258° (WSW) 11:02:04 145.935-145.965
DUCHIFAT 1 04 Dec 10:58:31 11:02:46 84° 257° (WSW) 11:07:04 145.980
ESTCUBE 1 04 Dec 10:58:35 11:02:41 33° 97° (E) 11:06:46 437.505/2401.250
AISAT 04 Dec 11:13:48 11:17:16 21° 94° (E) 11:20:41 437.250
POPSAT HIP 1 04 Dec 11:14:59 11:19:08 49° 261° (W) 11:23:19 437.405
DANDE 04 Dec 11:18:34 11:22:39 29° 283° (WNW) 11:25:54 436.750
GONETS M04 04 Dec 11:21:44 11:30:13 52° 74° (ENE) 11:38:40
PCSat 04 Dec 11:24:14 11:29:17 42° 113° (ESE) 11:34:22 145.827
Oscar 19 04 Dec 11:28:30 11:32:31 24° 63° (ENE) 11:36:33 437.125/150
CUBEBUG 1 04 Dec 11:44:20 11:48:45 62° 101° (E) 11:53:08 437.445
VELOX 1 04 Dec 11:50:13 11:54:33 47° 100° (E) 11:58:52 145.980
HUMSAT D 04 Dec 11:55:38 11:55:46 10° 300° (WNW) 11:55:55 437.325/437.525
AO-7 04 Dec 12:01:55 12:05:33 14° 40° (NE) 12:09:12 29.400- 29.500
BUGSAT 1 04 Dec 12:03:34 12:07:35 41° 262° (W) 12:11:38 437.445
DX 1 04 Dec 12:09:57 12:14:08 41° 99° (E) 12:18:16 434.975-435.025
NANOSAT C BR1 04 Dec 12:13:32 12:15:37 13° 270° (W) 12:17:44 145.865
JAS-2 04 Dec 12:14:05 12:18:07 17° 269° (W) 12:21:54 435.910
Cosmos 2499 04 Dec 12:15:39 12:24:21 75° 266° (W) 12:32:25 435.465 / 435.565
QB50P2 04 Dec 12:18:53 12:19:45 11° 272° (W) 12:20:38 145.880/145.840
POLYITAN 1 04 Dec 12:19:04 12:20:19 11° 271° (W) 12:21:35 437.675
UKube-1 04 Dec 12:20:51 12:24:58 40° 99° (E) 12:29:02 .
AO-85 04 Dec 12:29:12 12:31:01 13° 250° (WSW) 12:32:48 145.980
50 SAT 04 Dec 12:30:49 12:34:20 61° 286° (WNW) 12:37:50 437.505
TISAT 1 04 Dec 12:31:36 12:34:04 15° 91° (E) 12:36:31 437.305
ESTCUBE 1 04 Dec 12:35:37 12:39:21 26° 294° (WNW) 12:43:06 437.505/2401.250
SPROUT 04 Dec 12:37:23 12:41:42 79° 286° (WNW) 12:45:59 437.525
Gurwin Techsat 1B 04 Dec 12:47:33 12:52:47 62° 72° (ENE) 12:58:03 435.225
AISAT 04 Dec 12:49:40 12:53:52 40° 290° (WNW) 12:58:01 437.250
RS-15 04 Dec 12:51:32 13:01:47 29° 6° (N) 13:12:02 29.354- 29.394
BEESAT 3 04 Dec 13:02:41 13:06:01 25° 44° (NE) 13:09:20 437.485
Oscar 19 04 Dec 13:06:37 13:11:32 48° 261° (W) 13:16:31 437.125/150
PCSat 04 Dec 13:07:53 13:12:46 34° 312° (NW) 13:17:43 145.827
GONETS M04 04 Dec 13:19:02 13:26:44 37° 275° (W) 13:34:27
CUBEBUG 1 04 Dec 13:21:59 13:24:32 15° 298° (WNW) 13:27:05 437.445
VELOX 1 04 Dec 13:27:30 13:30:40 19° 297° (WNW) 13:33:49 145.980
BEESAT 2 04 Dec 13:27:54 13:31:08 22° 43° (NE) 13:34:22 435.950
ITAMSAT 1 04 Dec 13:31:03 13:35:51 38° 67° (ENE) 13:40:39 435.822/435.867
ITUPSAT 1 04 Dec 13:38:23 13:41:20 16° 91° (E) 13:44:15 437.325
DX 1 04 Dec 13:46:44 13:50:03 21° 296° (WNW) 13:53:20 434.975-435.025
AO-7 04 Dec 13:48:31 13:56:24 51° 62° (ENE) 14:04:22 29.400- 29.500
AUBIESAT-1 04 Dec 13:54:39 13:58:00 20° 97° (E) 14:01:16 437.475
UKube-1 04 Dec 13:57:28 14:00:45 21° 296° (WNW) 14:04:00 .
M-CUBED/EXP-1 PRIME 04 Dec 14:04:46 14:08:55 30° 100° (E) 14:12:56 437.505
TISAT 1 04 Dec 14:05:53 14:10:00 51° 288° (WNW) 14:14:05 437.305
Cosmos 2499 04 Dec 14:11:27 14:15:47 15° 287° (WNW) 14:20:00 435.465 / 435.565
Gurwin Techsat 1B 04 Dec 14:29:32 14:33:09 18° 269° (W) 14:36:48 435.225
MOZHAYETS 4 04 Dec 14:34:02 14:36:36 15° 90° (E) 14:39:10
BEESAT 3 04 Dec 14:40:02 14:43:45 37° 242° (WSW) 14:47:26 437.485
SWISSCUBE 04 Dec 14:44:02 14:48:50 80° 104° (ESE) 14:53:34 437.505
BEESAT 04 Dec 14:48:17 14:53:04 79° 103° (ESE) 14:57:48 436.000
BEESAT 2 04 Dec 15:05:16 15:09:08 44° 241° (WSW) 15:12:58 435.950
RS-15 04 Dec 15:06:19 15:18:17 50° 39° (NE) 15:29:57 29.354- 29.394
ITAMSAT 1 04 Dec 15:10:51 15:15:23 29° 265° (W) 15:19:54 435.822/435.867
ITUPSAT 1 04 Dec 15:14:51 15:19:33 59° 288° (WNW) 15:24:12 437.325
KKS-1 04 Dec 15:16:40 15:19:35 17° 92° (E) 15:22:30 437.445
AUBIESAT-1 04 Dec 15:28:10 15:32:38 49° 294° (WNW) 15:36:57 437.475
STARS 04 Dec 15:29:54 15:30:05 10° 88° (E) 15:30:16 437.465
HORYU 2 04 Dec 15:30:34 15:34:04 23° 65° (ENE) 15:37:34 437.375
M-CUBED/EXP-1 PRIME 04 Dec 15:39:07 15:43:20 33° 298° (WNW) 15:47:27 437.505
AIST 2 04 Dec 15:39:54 15:42:49 18° 39° (NE) 15:45:45 435.215
GOMX 1 04 Dec 15:40:59 15:43:43 16° 59° (ENE) 15:46:32 467.674
AO-7 04 Dec 15:41:42 15:49:20 40° 262° (W) 15:57:04 29.400- 29.500
O/OREOS (USA 219) 04 Dec 15:47:45 15:51:55 36° 106° (ESE) 15:56:06 437.305
BRITE-PL 04 Dec 15:54:46 15:58:49 42° 70° (ENE) 16:03:08 437.365/2234.400
DOVE 4 04 Dec 16:01:20 16:03:00 12° 56° (NE) 16:04:41 437.250
CUBESAT XI-V 04 Dec 16:08:17 16:11:50 21° 93° (E) 16:15:23 437.345
MOZHAYETS 4 04 Dec 16:09:40 16:14:10 59° 287° (WNW) 16:18:38
SWISSCUBE 04 Dec 16:23:39 16:25:57 14° 301° (WNW) 16:28:16 437.505
BEESAT 04 Dec 16:27:51 16:30:12 14° 301° (WNW) 16:32:33 436.000
NOAA 18 04 Dec 16:28:09 16:32:14 21° 60° (ENE) 16:36:19 137.9125
CUTE-I 04 Dec 16:32:17 16:36:57 31° 65° (ENE) 16:41:38 437.470
KKS-1 04 Dec 16:52:05 16:56:27 51° 288° (WNW) 17:00:46 437.445
Cubesat XI-IV 04 Dec 16:57:04 17:02:14 50° 70° (ENE) 17:07:26 437.490
ISS 04 Dec 16:58:17 17:01:29 53° 144° (SE) 17:04:44 145.825
NOAA 15 04 Dec 16:59:58 17:05:06 59° 71° (ENE) 17:10:15 137.62
STARS 04 Dec 17:02:33 17:07:00 82° 285° (WNW) 17:11:25 437.465
HORYU 2 04 Dec 17:06:10 17:10:23 39° 262° (W) 17:14:37 437.375
LilacSat-2 04 Dec 17:12:49 17:16:39 67° 75° (ENE) 17:20:30 437.200
GOMX 1 04 Dec 17:16:39 17:21:08 68° 259° (W) 17:26:01 467.674
AIST 2 04 Dec 17:17:32 17:21:46 72° 238° (WSW) 17:25:58 435.215
RS-15 04 Dec 17:19:17 17:31:24 65° 245° (WSW) 17:43:07 29.354- 29.394
Cosmos 2491 04 Dec 17:21:36 17:29:53 45° 72° (ENE) 17:38:06 435.465 / 435.565
O/OREOS (USA 219) 04 Dec 17:27:34 17:31:24 26° 304° (NW) 17:35:15 437.305
CINEMA 3 04 Dec 17:29:19 17:33:04 22° 64° (ENE) 17:36:52 145.822/145.860
BRITE-PL 04 Dec 17:34:35 17:37:36 19° 270° (W) 17:40:46 437.365/2234.400
DOVE 4 04 Dec 17:34:59 17:39:44 81° 76° (ENE) 17:44:50 437.250
CUBESAT XI-V 04 Dec 17:44:59 17:49:23 43° 289° (WNW) 17:53:47 437.345
HO-68 04 Dec 17:50:08 17:56:34 38° 62° (ENE) 18:03:04 435.675
YUBILEINY 04 Dec 17:53:07 17:59:56 27° 80° (E) 18:06:48 435.215
CUBEBUG 2 04 Dec 18:00:20 18:02:09 12° 59° (ENE) 18:03:59 437.445
CUTE 1.7 + AOD 2 04 Dec 18:04:38 18:08:04 25° 67° (ENE) 18:11:29 437.475
NOAA 18 04 Dec 18:06:55 18:12:24 63° 258° (WSW) 18:17:56 137.9125
Cosmos 2504 04 Dec 18:08:10 18:12:29 15° 73° (ENE) 18:16:53 435.465 / 435.565
CUTE-I 04 Dec 18:11:55 18:16:53 38° 263° (W) 18:21:53 437.470
CANX-2 04 Dec 18:21:39 18:25:38 42° 71° (ENE) 18:29:37 2200.000
PCSat 04 Dec 18:28:30 18:30:42 12° 30° (NNE) 18:32:53 145.827
ISS 04 Dec 18:35:05 18:38:07 32° 342° (NNW) 18:41:10 145.825
AAUSAT CUBESAT 2 04 Dec 18:36:22 18:39:20 19° 65° (ENE) 18:42:17 437.432
Cubesat XI-IV 04 Dec 18:38:19 18:42:34 23° 267° (W) 18:46:50 437.490
NOAA 15 04 Dec 18:41:36 18:45:15 19° 268° (W) 18:48:56 137.62
UWE-3 04 Dec 18:44:18 18:47:44 21° 65° (ENE) 18:51:08 435.000/436.395/437.385
SEEDS 04 Dec 18:50:18 18:54:20 51° 73° (ENE) 18:58:23 437.485
COMPASS 1 04 Dec 19:03:48 19:07:45 48° 72° (ENE) 19:11:45 437.405
CINEMA 3 04 Dec 19:05:03 19:09:49 50° 261° (W) 19:14:43 145.822/145.860
STRAND 1 04 Dec 19:06:27 19:11:25 48° 100° (E) 19:16:19 437.568
AIST 1 04 Dec 19:07:44 19:11:12 24° 88° (E) 19:14:42
DOVE 4 04 Dec 19:16:12 19:18:09 12° 274° (W) 19:20:07 437.250
Cosmos 2491 04 Dec 19:18:39 19:26:41 43° 273° (W) 19:34:42 435.465 / 435.565
SO-50 04 Dec 19:20:37 19:23:43 17° 110° (ESE) 19:26:47 436.795
ZACube-1 04 Dec 19:28:08 19:32:13 34° 69° (ENE) 19:36:17 437.345
CUBEBUG 2 04 Dec 19:33:17 19:38:03 90° 133° (SE) 19:42:48 437.445
RS-15 04 Dec 19:35:29 19:41:10 15° 267° (W) 19:46:49 29.354- 29.394
FUNcube-1 04 Dec 19:36:38 19:40:49 38° 70° (ENE) 19:44:57 145.935
HO-68 04 Dec 19:37:19 19:44:09 47° 261° (W) 19:51:02 435.675
CUSAT 1 04 Dec 19:39:12 19:42:07 25° 76° (ENE) 19:45:40 437.405
CUTE 1.7 + AOD 2 04 Dec 19:40:01 19:43:46 31° 264° (W) 19:47:33 437.475
YUBILEINY 04 Dec 19:47:16 19:55:55 70° 281° (W) 20:04:42 435.215
DELFI C3 04 Dec 19:48:48 19:51:18 17° 65° (ENE) 19:53:49 145.870
Cosmos 2504 04 Dec 19:55:53 20:04:10 74° 94° (E) 20:12:58 435.465 / 435.565
CANX-2 04 Dec 19:58:47 20:01:41 18° 268° (W) 20:04:35 2200.000
Oscar 11 04 Dec 20:09:06 20:13:25 78° 74° (ENE) 20:17:44 145.826/435.025
PCSat 04 Dec 20:10:11 20:15:28 49° 52° (NE) 20:20:42 145.827
AAUSAT CUBESAT 2 04 Dec 20:10:42 20:14:32 38° 262° (W) 20:18:25 437.432
ISS 04 Dec 20:12:36 20:15:17 22° 2° (N) 20:17:58 145.825
UWE-3 04 Dec 20:19:21 20:23:52 47° 262° (W) 20:28:20 435.000/436.395/437.385
SEEDS 04 Dec 20:27:59 20:30:20 15° 269° (W) 20:32:41 437.485
COMPASS 1 04 Dec 20:41:08 20:43:34 15° 269° (W) 20:46:01 437.405
AIST 1 04 Dec 20:44:51 20:48:39 30° 286° (WNW) 20:52:31
STRAND 1 04 Dec 20:46:18 20:50:17 23° 297° (WNW) 20:54:14 437.568
SO-50 04 Dec 20:58:58 21:03:43 65° 308° (NW) 21:08:24 436.795
ZACube-1 04 Dec 21:04:42 21:08:31 26° 266° (W) 21:12:19 437.345
HUMSAT D 04 Dec 21:08:53 21:13:05 69° 75° (ENE) 21:17:15 437.325/437.525
FUNcube-1 04 Dec 21:13:31 21:17:08 23° 266° (W) 21:20:44 145.935
CUBEBUG 2 04 Dec 21:14:35 21:15:17 10° 273° (W) 21:15:59 437.445
PRISM 04 Dec 21:16:16 21:20:27 75° 103° (ESE) 21:24:36 437.425
CUSAT 1 04 Dec 21:21:08 21:23:56 21° 264° (W) 21:27:17 437.405
DELFI C3 04 Dec 21:22:04 21:25:48 42° 262° (W) 21:29:33 145.870
UNISAT 6 04 Dec 21:23:06 21:26:25 21° 92° (E) 21:29:41 437.425
ISS 04 Dec 21:49:12 21:52:23 41° 22° (NNE) 21:55:33 145.825
Oscar 11 04 Dec 21:49:39 21:50:05 10° 272° (W) 21:50:31 145.826/435.025
YUBILEINY 04 Dec 21:49:45 21:54:37 16° 305° (NW) 21:59:31 435.215
Cosmos 2504 04 Dec 21:51:32 21:58:28 27° 296° (WNW) 22:05:43 435.465 / 435.565
TIGRISAT 04 Dec 21:52:59 21:57:08 39° 97° (E) 22:01:11 435.000
DANDE 04 Dec 21:53:09 21:55:34 28° 263° (W) 21:58:21 436.750
ANTELSAT 04 Dec 21:54:01 21:58:14 42° 98° (E) 22:02:21 437.575/2403.000
PCSat 04 Dec 21:54:05 21:58:35 27° 251° (WSW) 22:03:04 145.827
ESTCUBE 1 04 Dec 21:59:29 22:03:35 37° 69° (ENE) 22:07:43 437.505/2401.250
SPROUT 04 Dec 21:59:51 22:00:55 11° 59° (ENE) 22:01:59 437.525
AISAT 04 Dec 22:12:37 22:16:09 24° 65° (ENE) 22:19:42 437.250
QB50P2 04 Dec 22:25:05 22:26:06 11° 88° (E) 22:27:07 145.880/145.840
POLYITAN 1 04 Dec 22:26:14 22:26:39 10° 88° (E) 22:27:03 437.675
QB50P1 04 Dec 22:38:00 22:40:20 14° 90° (E) 22:42:39 145.935-145.965
CUBEBUG 1 04 Dec 22:41:27 22:45:45 62° 73° (ENE) 22:50:06 437.445
SO-50 04 Dec 22:42:30 22:45:04 14° 328° (NNW) 22:47:37 436.795
DUCHIFAT 1 04 Dec 22:42:33 22:44:42 14° 90° (E) 22:46:50 145.980
HUMSAT D 04 Dec 22:47:53 22:49:08 11° 271° (W) 22:50:23 437.325/437.525
VELOX 1 04 Dec 22:48:43 22:53:00 51° 71° (ENE) 22:57:18 145.980
PRISM 04 Dec 22:53:42 22:55:09 12° 300° (WNW) 22:56:36 437.425
POPSAT HIP 1 04 Dec 22:58:31 23:01:56 23° 94° (E) 23:05:20 437.405
UNISAT 6 04 Dec 22:59:10 23:03:19 39° 290° (WNW) 23:07:21 437.425
Cosmos 2499 04 Dec 23:03:15 23:08:51 19° 76° (ENE) 23:14:33 435.465 / 435.565
DX 1 04 Dec 23:06:44 23:10:51 43° 70° (ENE) 23:15:00 434.975-435.025
50 SAT 04 Dec 23:07:12 23:10:41 65° 75° (ENE) 23:14:11 437.505
UKube-1 04 Dec 23:16:37 23:20:40 41° 70° (ENE) 23:24:45 .
JAS-2 04 Dec 23:18:16 23:23:22 55° 101° (E) 23:28:38 435.910
TISAT 1 04 Dec 23:25:00 23:27:28 15° 62° (ENE) 23:29:55 437.305
ISS 04 Dec 23:25:48 23:28:51 34° 220° (SW) 23:31:53 145.825
TIGRISAT 04 Dec 23:30:12 23:33:34 22° 295° (WNW) 23:36:53 435.000
ANTELSAT 04 Dec 23:31:24 23:34:39 20° 296° (WNW) 23:37:50 437.575/2403.000
SPROUT 04 Dec 23:31:51 23:36:09 86° 257° (WSW) 23:40:30 437.525
ESTCUBE 1 04 Dec 23:36:57 23:40:29 23° 266° (W) 23:44:04 437.505/2401.250
BUGSAT 1 04 Dec 23:44:00 23:47:28 24° 94° (E) 23:50:53 437.445
AISAT 04 Dec 23:48:20 23:52:25 36° 263° (W) 23:56:33 437.250
NANOSAT C BR1 04 Dec 23:53:35 23:57:50 88° 102° (ESE) 00:02:03 145.865
QB50P2 04 Dec 23:58:09 00:02:24 72° 285° (WNW) 00:06:36 145.880/145.840
POLYITAN 1 04 Dec 23:58:43 00:02:58 76° 286° (WNW) 00:07:10 437.675
QB50P1 05 Dec 00:12:17 00:16:27 54° 287° (WNW) 00:20:33 145.935-145.965
DUCHIFAT 1 05 Dec 00:16:35 00:20:44 56° 288° (WNW) 00:24:51 145.980
SWISSCUBE 05 Dec 00:16:50 00:19:24 15° 59° (ENE) 00:21:59 437.505
O/OREOS (USA 219) 05 Dec 00:18:09 00:20:13 13° 47° (NE) 00:22:17 437.305
CUBEBUG 1 05 Dec 00:20:20 00:22:26 13° 270° (W) 00:24:34 437.445
BEESAT 05 Dec 00:21:03 00:23:36 14° 59° (ENE) 00:26:08 436.000
GONETS M04 05 Dec 00:24:31 00:32:57 57° 90° (E) 00:41:22
VELOX 1 05 Dec 00:26:57 00:29:45 16° 269° (W) 00:32:34 145.980
PHONESAT 2.4 05 Dec 00:32:28 00:33:16 11° 154° (SSE) 00:34:04 2401.200-2431.200
POPSAT HIP 1 05 Dec 00:33:57 00:37:46 33° 291° (WNW) 00:41:33 437.405
AUBIESAT-1 05 Dec 00:41:08 00:44:45 29° 61° (ENE) 00:48:34 437.475
DX 1 05 Dec 00:44:11 00:47:15 19° 267° (W) 00:50:20 434.975-435.025
ITUPSAT 1 05 Dec 00:46:21 00:50:08 24° 64° (ENE) 00:53:56 437.325
M-CUBED/EXP-1 PRIME 05 Dec 00:51:53 00:55:47 44° 65° (ENE) 01:00:00 437.505
Cosmos 2499 05 Dec 00:52:03 01:00:36 87° 97° (E) 01:09:34 435.465 / 435.565
UKube-1 05 Dec 00:53:46 00:56:53 19° 267° (W) 01:00:00 .
TISAT 1 05 Dec 00:58:28 01:02:38 57° 259° (W) 01:06:50 437.305
Gurwin Techsat 1B 05 Dec 01:02:52 01:06:53 21° 92° (E) 01:10:53 435.225
AO-85 05 Dec 01:04:16 01:07:02 15° 110° (ESE) 01:09:42 145.980
JAS-2 05 Dec 01:04:25 01:08:07 20° 299° (WNW) 01:11:53 435.910
Oscar 19 05 Dec 01:16:11 01:21:16 53° 100° (E) 01:26:20 437.125/150
BUGSAT 1 05 Dec 01:19:08 01:22:51 31° 292° (WNW) 01:26:30 437.445
NANOSAT C BR1 05 Dec 01:32:21 01:32:52 10° 301° (WNW) 01:33:23 145.865
MOZHAYETS 4 05 Dec 01:37:23 01:40:30 18° 63° (ENE) 01:43:38
